Location: Cherryland
(37.6794°N, 122.1033°W)
Time: 22:46:55
(UTC+00:00)

Cosmos 1076 Rocket - Pass Details

Date: 14 December 2025
Orbit: 582 x 603 km, 82.5° (Epoch: 14 January)

Event Time Altitude Azimuth Distance (km) Brightness Sun altitude
Rises 14:26:45 0° 177° (S) 2,791 7.3 -9.6°
Reaches altitude 10° 14:28:56 10° 174° (S) 1,898 6.5 -9.2°
Maximum altitude 14:33:04 61° 94° (E) 668 4.1 -8.4°
Drops below altitude 10° 14:37:15 10° 14° (NNE) 1,924 6.0 -7.7°
Sets 14:39:29 0° 11° (NNE) 2,833 6.8 -7.3°
